Home > Weather > Rygge > Past weeks

Flag for Norway Past Weather in Rygge, Norway — Yesterday and Last 2 Weeks

Now
56 °F

Clear.


Feels Like: 56 °F
Forecast: 56 / 60 °F
Wind: 5 mph from Southwest

Location: Rygge

Current Time: Jun 29, 2016 at 4:02:23 AM

Latest Report: Jun 29, 2016 at 3:00 AM


Visibility: 19 mi

Pressure: 29.87 "Hg

Humidity: 84%

Dew Point: 52 °F

Location of RyggeLocation

Past Weather in Rygge — Graph

°F

Rygge Temperature Yesterday

Maximum temperature yesterday: 66 °F (at 4:00 PM)
Minimum temperature yesterday: 54 °F (at 5:00 AM)
Average temperature yesterday: 61 °F

High & Low Weather Summary for the Past Weeks

 TemperatureHumidityPressure
High76 °F (Jun 16, 2:00 PM)98% (Jun 15, 11:00 PM)30.19 "Hg (Jun 15, 11:00 PM)
Low47 °F (Jun 14, 5:00 AM)30% (Jun 14, 10:00 AM)29.56 "Hg (Jun 17, 2:00 AM)
Average61 °F79%29.83 "Hg
* Reported Jun 14 2:00 AM — Jun 29 2:00 AM, Rygge, Weather by CustomWeather, © 2016

Note: Actual official high and low records may vary slightly from our data, if they occured in-between our weather recording intervals... More about our weather records

Advertising

Rygge Weather History for the Previous 24 Hours

Scroll right to see more
 ConditionsComfort  
Time TempWeatherWind HumidityBarometerVisibility
2:00 AM
Wed, Jun 29
56 °FClear.3 mph81%29.88 "Hg19 mi
1:00 AM57 °FClear.5 mph80%29.88 "Hg17 mi
12:00 AM57 °FClear.5 mph80%29.87 "Hg16 mi
11:00 PM
Tue, Jun 28
58 °FClear.5 mph81%29.87 "Hg17 mi
10:00 PM59 °FSunny.5 mph76%29.87 "Hg19 mi
9:00 PM61 °FSunny.5 mph72%29.86 "Hg19 mi
8:00 PM62 °FOvercast.6 mph67%29.86 "Hg22 mi
7:00 PM61 °FSunny.7 mph66%29.85 "Hg22 mi
6:00 PM64 °FSunny.8 mph62%29.85 "Hg18 mi
5:00 PM65 °FSunny.8 mph63%29.85 "Hg19 mi
4:00 PM66 °FSunny.7 mph57%29.85 "Hg19 mi
3:00 PM66 °FSunny.8 mph61%29.85 "Hg19 mi
2:00 PM65 °FSunny.9 mph58%29.85 "Hg19 mi
1:00 PM65 °FSunny.8 mph57%29.85 "Hg22 mi
12:00 PM64 °FSunny.7 mph59%29.85 "Hg25 mi
11:00 AM63 °FPassing clouds.5 mph63%29.84 "Hg25 mi
10:00 AM61 °FSunny.3 mph64%29.83 "Hg25 mi
9:00 AM61 °FSunny.3 mph65%29.81 "Hg28 mi
8:00 AM60 °FSunny.3 mph73%29.80 "Hg22 mi
7:00 AM58 °FScattered clouds.3 mph83%29.79 "Hg22 mi
6:00 AM56 °FSunny.2 mph93%29.78 "Hg12 mi
5:00 AM54 °FSunny.2 mph95%29.77 "Hg7 mi
Weather by CustomWeather, © 2016

See weather overviewHow to use our weather pages